NAVSTAR 78 (USA 293) (44506 NORAD) Tracking and Keplerian Element Data

This shows tracking and keplerian element data for the satellite.

Feedback or suggestion? Click here.




ElementValue
Catalog44506
NameNAVSTAR 78 (USA 293)
Epoch Orbit66
Epoch Day261.6656713
Epoch Year2019
RAAN69.2398
Inclination55.0392
Eccentricity0.000175
Argument of Perigee107.4977
Mean Anonmoly321.4288
Mean Motion2.00487878
Decay Rate-1.2E-07
L11 44506U 19056A 19261.66567130 -.00000012 00000-0 00000+0 0 9996
L22 44506 55.0392 69.2398 0001750 107.4977 321.4288 2.00487878 664

Live tracking and technical data element details for NAVSTAR 78 (USA 293) (NORAD 44506). NAVSTAR 78 (USA 293) can be tracked NOW for your location showing map with azimuth and elevation plus other details from your city location.

Track the satellite on the map from your city or location and see movement details for azimuth, elevation, latitude, longitude, range, height, and movement on the map or in text.







IsCatalogInMostPopularTable: catalog: 44506, numindb: 41
Update: records affected: 1



GetName: 44506 NAVSTAR 78 (USA 293)

Hit Count: updated at: Fri, 15 Nov 2019 01:57:49 GMT